Hourly Data Report for November 21, 2020

OTTAWA INTL A
ONTARIO
Current Station Operator: NAVCAN

45°19'00.000" N
75°40'00.000" W
114.90 m
6106001
71628
YOW

Download Data

Hourly Data (November 2020)
Hourly Data Report for November 21, 2020
TIME Temp Definition
°C
Dew Point Definition
°C
Rel Hum Definition
%
Wind Dir Definition
10's deg

Wind Spd Definition
km/h
Visibility Definition
km
Stn Press Definition
kPa
Hmdx Definition


Wind Chill Definition


Weather Definition


00:00 6.5 2.5 76 25 18 24.1 100.67     LegendNANA
01:00 7.2 0.9 64 29 25 24.1 100.73     Mainly Clear
02:00 6.1 0.2 66 27 14 24.1 100.84     LegendNANA
03:00 6.0 0.0 65 26 13 24.1 100.93     LegendNANA
04:00 5.1 1.4 77 27 28 24.1 101.03     Mostly Cloudy
05:00 4.4 -0.8 69 27 22 24.1 101.16     LegendNANA
06:00 3.6 -0.2 76 28 22 24.1 101.28     LegendNANA
07:00 3.5 -0.6 75 29 19 24.1 101.37     Mostly Cloudy
08:00 2.7 -1.5 74 29 21 24.1 101.46     LegendNANA
09:00 3.1 -3.0 64 29 19 24.1 101.55     LegendNANA
10:00 4.1 -2.9 60 33 23 24.1 101.61     Mostly Cloudy
11:00 3.2 -5.7 52 32 28 24.1 101.64     LegendNANA
12:00 4.0 -6.0 48 28 24 24.1 101.63     LegendNANA
13:00 2.6 -5.8 54 34 18 24.1 101.67     Mostly Cloudy
14:00 3.4 -5.9 50 32 20 24.1 101.69     LegendNANA
15:00 2.7 -6.5 51 35 13 24.1 101.71     LegendNANA
16:00 2.3 -7.2 50 28 14 24.1 101.77     Mostly Cloudy
17:00 1.9 -7.5 50 30 13 24.1 101.83     LegendNANA
18:00 1.6 -8.5 47 32 13 24.1 101.88     LegendNANA
19:00 0.6 -7.8 53 5 10 24.1 101.93     Mostly Cloudy
20:00 -1.7 -8.0 62 3 7 24.1 101.95   -4 LegendNANA
21:00 -2.2 -8.3 63 36 8 24.1 101.98   -5 LegendNANA
22:00 -4.6 -8.8 73 3 12 24.1 102.01   -9 Mainly Clear
23:00 -4.2 -8.2 74 1 6 24.1 102.03   -7 LegendNANA

Notes on Data Quality.

Legend

  • E = Estimated
  • M = Missing
  • NA = Not Available*
  • [empty] = Indicates an unobserved value
Date modified: